Home   Weather   Saint-Étienne   Past weeks

Flag for France Past Weather in Saint-Étienne, Rhône-Alpes, France — Yesterday and Last 2 Weeks

Now
55 °F

Fog.


Feels Like: 55 °F
Forecast: 46 / 67 °F
Wind: No wind

Location: St-Etienne Boutheon

Current Time: Sep 26, 2016 at 2:17:50 AM

Latest Report: Sep 26, 2016 at 1:30 AM


Visibility: 0 mi

Pressure: 30.21 "Hg (28.36 "Hg at 529m altitude)

Humidity: 94%

Dew Point: 54 °F

Location of Saint-ÉtienneLocation

Past Weather in Saint-Étienne — Graph

°F

Saint-Étienne Temperature Yesterday

Maximum temperature yesterday: 77 °F (at 1:30 PM)
Minimum temperature yesterday: 52 °F (at 6:00 AM)
Average temperature yesterday: 63 °F

High & Low Weather Summary for the Past Weeks

 TemperatureHumidityPressure
High90 °F (Sep 12, 2:00 PM)100% (Sep 18, 7:00 PM)30.30 "Hg (Sep 18, 7:00 PM)
Low43 °F (Sep 22, 7:30 AM)15% (Sep 14, 6:30 PM)29.83 "Hg (Sep 14, 6:00 PM)
Average63 °F68%30.07 "Hg
* Reported Sep 11 1:00 AM — Sep 26 1:00 AM, Saint-Étienne, Weather by CustomWeather, © 2016

Note: Actual official high and low records may vary slightly from our data, if they occured in-between our weather recording intervals... More about our weather records

Advertising

Saint-Étienne Weather History for the Previous 24 Hours

Scroll right to see more
 ConditionsComfort  
Time TempWeatherWind HumidityBarometerVisibility
1:00 AM
Mon, Sep 26
55 °FFog.No wind94%30.21 "Hg1 mi
12:30 AM57 °FFog.No wind94%30.21 "Hg1 mi
12:00 AM57 °FPartly cloudy.No wind94%30.21 "Hg1 mi
11:30 PM
Sun, Sep 25
59 °FPartly cloudy.No wind94%30.21 "Hg6 mi
11:00 PM59 °FMostly cloudy.No wind94%30.21 "HgN/A
10:30 PM59 °FPassing clouds.No wind94%30.21 "HgN/A
10:00 PM59 °FPassing clouds.2 mph94%30.21 "HgN/A
9:30 PM59 °FMostly cloudy.3 mph94%30.21 "HgN/A
9:00 PM59 °FLight rain. Mostly cloudy.2 mph94%30.21 "HgN/A
8:30 PM59 °FRain. Fog.1 mph94%30.21 "Hg2 mi
8:00 PM59 °FLight rain. Partly cloudy.2 mph88%30.21 "HgN/A
7:30 PM61 °FLight rain. Broken clouds.2 mph83%30.21 "HgN/A
7:00 PM63 °FLight rain. Cloudy.3 mph73%30.18 "HgN/A
6:30 PM64 °FPartly sunny.9 mph68%30.18 "HgN/A
6:00 PM66 °FBroken clouds.6 mph60%30.15 "HgN/A
5:30 PM66 °FBroken clouds.3 mph64%30.12 "HgN/A
5:00 PM66 °FBroken clouds.6 mph68%30.12 "HgN/A
4:30 PM66 °FBroken clouds.8 mph68%30.12 "HgN/A
4:00 PM70 °FSprinkles. Broken clouds.9 mph57%30.12 "HgN/A
3:30 PM73 °FBroken clouds.10 mph47%30.09 "HgN/A
3:00 PM77 °FBroken clouds.6 mph36%30.09 "HgN/A
2:30 PM77 °FBroken clouds.6 mph36%30.09 "HgN/A
2:00 PM77 °FPartly sunny.6 mph42%30.09 "HgN/A
1:30 PM77 °FPartly sunny.7 mph42%30.12 "HgN/A
1:00 PM75 °FScattered clouds.8 mph44%30.12 "HgN/A
12:30 PM73 °FScattered clouds.12 mph44%30.12 "HgN/A
12:00 PM73 °FPassing clouds.7 mph47%30.12 "HgN/A
11:30 AM72 °FPassing clouds.6 mph50%30.12 "HgN/A
11:00 AM70 °FPassing clouds.7 mph53%30.12 "HgN/A
10:30 AM66 °FPassing clouds.6 mph60%30.12 "HgN/A
10:00 AM66 °FPassing clouds.6 mph60%30.12 "HgN/A
9:30 AM63 °FSunny.1 mph68%30.12 "Hg10 mi
9:00 AM59 °FSunny.1 mph77%30.12 "Hg10 mi
8:30 AM55 °FSunny.1 mph82%30.12 "Hg10 mi
8:00 AM54 °FSunny.2 mph88%30.12 "Hg10 mi
7:30 AM52 °FClear.No wind88%30.12 "Hg10 mi
7:00 AM52 °FClear.2 mph88%30.12 "Hg10 mi
6:30 AM52 °FClear.3 mph88%30.12 "Hg10 mi
6:00 AM52 °FClear.2 mph88%30.12 "Hg10 mi
5:30 AM54 °FClear.No wind82%30.12 "Hg10 mi
5:00 AM54 °FClear.3 mph82%30.12 "Hg10 mi
4:30 AM55 °FPassing clouds.3 mph77%30.12 "HgN/A
4:00 AM55 °FClear.3 mph77%30.12 "Hg10 mi
3:30 AM55 °FClear.8 mph77%30.15 "Hg10 mi
3:00 AM57 °FClear.6 mph72%30.15 "Hg10 mi
2:30 AM59 °FPassing clouds.3 mph68%30.15 "HgN/A
2:00 AM59 °FClear.5 mph72%30.15 "Hg10 mi
Weather by CustomWeather, © 2016

See weather overviewHow to use our weather pages